Location: Berg
(47.2344°N, 9.5296°E)
Time: 22:45:55
(UTC+00:00)

H-2A R/B - Pass Details

Date: 24 January 2021
Orbit: 529 x 652 km, 98.3° (Epoch: 04 March)

Event Time Altitude Azimuth Distance (km) Brightness Sun altitude
Rises 17:03:11 0° 180° (S) 2,750 6.1 -8.8°
Reaches altitude 10° 17:05:21 10° 186° (S) 1,878 5.4 -9.2°
Maximum altitude 17:09:16 46° 260° (W) 798 3.7 -9.8°
Drops below altitude 10° 17:13:23 10° 335° (NNW) 1,967 5.2 -10.5°
Sets 17:15:42 0° 341° (NNW) 2,897 6.0 -10.8°
